Wind_Speed
13 17 16 18 11 8 9 7 9 8 11 12 10 10 12 10 9 8 11 8 8 10 9 8 16 24 30 31 34 36 33 31 28 30 34 33 35 35 34 32 27 27 25 23
8 13 9 12 16 15 8 4 8 7 9 8 12 7 5 11 10 9 9 10 11 10 9 12 17 23 26 29 31 30 28 27 28 25 27 28 32 37 30 25 24 24 23 21
15 8 12 12 16 7 6 6 6 6 9 8 9 8 9 11 11 10 10 9 10 12 11 17 22 28 26 27 30 28 24 24 26 29 32 31 31 27 24 22 22 20 19 19
4 3 11 16 12 7 13 11 9 6 6 8 8 10 12 9 10 10 10 10 9 7 8 18 21 22 28 28 25 26 26 25 26 28 28 28 28 26 23 22 21 21 21 22
2 6 4 9 5 7 7 7 7 7 3 5 5 2 3 7 8 13 11 7 6 12 17 23 25 27 28 26 27 27 26 27 28 32 32 31 29 28 24 24 23 23 23 23
6 7 16 3 6 3 3 6 6 5 2 6 1 1 5 6 5 6 8 10 12 17 22 25 25 29 26 22 23 22 26 29 30 30 29 29 29 28 27 24 24 24 22 19
9 5 8 5 6 8 8 6 3 3 2 5 6 7 6 8 4 5 7 12 19 22 21 24 29 29 22 23 20 25 28 28 27 27 28 28 27 26 27 26 25 24 23 19
5 5 7 2 5 4 2 6 6 6 4 7 9 10 6 8 8 9 10 10 16 16 17 24 28 28 21 20 25 27 28 27 27 26 26 27 28 27 26 26 26 24 26 23
6 5 9 4 4 4 4 3 3 4 10 6 6 6 7 7 10 8 11 10 16 18 20 22 25 26 21 22 29 30 29 27 27 27 26 26 28 27 26 26 29 26 27 25
6 14 17 12 5 7 5 5 4 2 7 5 6 4 8 7 7 8 8 10 17 19 15 16 22 23 28 29 30 29 27 26 28 26 23 21 22 23 26 28 27 25 23 22
7 6 5 8 7 6 7 10 4 5 4 5 6 8 7 5 6 9 10 13 20 18 16 17 23 25 28 31 31 27 26 25 22 21 22 21 19 17 21 18 22 25 21 21
6 9 6 7 9 12 7 5 6 3 4 5 4 9 5 7 9 9 10 15 14 16 20 19 24 25 27 29 32 32 26 24 24 25 24 25 26 23 18 13 11 11 12 10
5 10 5 5 5 5 3 4 7 8 6 4 5 6 5 5 5 12 16 18 18 17 20 23 24 23 23 25 27 29 29 27 27 26 24 23 20 20 19 15 13 11 8 8
15 12 6 11 6 9 7 6 9 10 12 11 9 1 4 6 12 12 13 19 23 27 28 28 28 24 19 27 32 33 32 30 28 24 22 20 17 15 12 10 7 5 4 4
13 11 7 6 10 12 10 8 12 11 11 14 20 14 12 15 17 19 23 26 31 31 29 27 30 27 26 29 33 31 31 30 29 26 22 18 15 14 12 9 7 7 10 10
8 9 13 13 12 12 11 12 11 10 12 13 15 17 23 26 29 30 29 26 27 24 28 32 31 30 30 31 32 29 25 20 19 17 16 15 13 11 9 7 5 5 6 11
8 9 11 12 11 12 12 10 11 11 11 13 15 23 26 27 30 31 31 33 34 31 29 31 28 24 21 19 21 21 21 18 16 14 13 11 10 8 7 6 4 3 3 3
9 9 9 9 8 8 11 11 11 14 14 19 21 26 27 24 18 24 25 29 35 35 31 29 27 25 23 20 19 18 16 15 14 13 11 9 7 6 4 3 3 3 2 1
13 13 13 12 12 13 11 12 17 19 19 20 27 24 26 27 24 24 26 29 26 24 22 26 27 26 24 19 19 17 16 15 13 11 9 7 7 5 4 4 2 1 1 1
16 20 21 20 23 21 15 20 22 24 22 23 26 27 24 23 25 28 29 28 24 21 24 24 25 24 22 19 18 16 15 14 13 10 9 8 6 6 6 6 5 5 4 4
13 16 18 20 21 24 23 22 25 24 24 25 25 23 23 23 22 21 23 21 22 23 24 23 23 21 19 16 16 16 15 14 12 11 10 10 9 8 8 8 7 6 6 7
16 15 18 22 23 24 25 26 27 25 26 26 26 26 26 24 25 27 25 23 22 22 24 24 22 19 17 16 15 15 14 14 13 13 13 12 12 11 11 10 8 8 8 8
20 21 22 22 22 23 26 26 26 26 26 25 24 23 23 21 18 17 15 20 23 23 24 22 18 17 17 17 16 16 15 15 13 12 11 10 9 9 9 10 10 9 8 6
23 23 22 21 22 24 20 23 26 27 27 28 27 24 20 20 22 24 24 22 22 22 21 19 18 18 17 16 15 14 14 13 12 11 10 10 10 11 12 11 11 9 7 9
23 23 23 21 19 16 18 19 21 22 23 24 23 23 23 22 22 18 20 20 19 18 19 16 15 14 14 14 14 15 14 13 11 11 11 11 11 12 12 12 11 11 13 14
20 18 19 20 17 17 17 17 18 17 18 20 22 23 22 20 19 19 19 18 17 16 16 15 14 14 14 13 12 11 10 10 9 9 10 11 12 13 13 12 14 16 19 19
19 17 16 19 20 21 21 19 18 17 19 21 20 20 20 19 19 18 17 16 15 15 14 13 13 14 13 12 11 11 11 10 11 12 13 13 11 11 13 15 18 19 18 17
Wind_Direction
225 225 240 264 263 211 208 195 196 219 220 217 229 231 229 226 201 199 209 211 205 188 171 179 188 192 198 200 201 200 200 202 210 212 215 220 209 211 213 209 209 211 207 200
224 218 202 235 244 250 243 201 232 204 216 217 227 237 221 224 216 222 223 198 199 199 160 169 180 182 190 194 203 201 202 209 209 197 208 191 184 194 191 192 196 199 195 193
249 229 232 259 233 224 229 190 183 213 228 241 245 251 234 215 219 209 211 210 187 196 181 171 179 172 175 189 198 193 184 182 181 182 176 177 179 174 174 180 180 181 179 179
268 132 223 255 190 211 228 229 204 188 244 228 229 248 230 223 231 224 205 198 197 190 160 161 165 157 154 166 161 156 157 155 158 158 159 163 167 171 170 174 175 172 170 172
263 235 270 253 236 160 182 250 206 188 217 269 276 305 236 231 210 229 207 185 174 170 153 149 152 154 147 143 147 150 147 152 158 161 158 160 162 165 164 163 160 161 163 162
264 272 234 242 222 251 107 252 228 182 144 316 330 125 249 237 192 178 156 152 150 153 144 145 152 154 144 141 143 144 151 156 164 168 165 164 162 160 163 162 158 157 156 163
221 265 283 247 275 169 218 257 263 136 0 320 249 213 238 174 185 176 159 152 153 153 157 154 154 154 139 145 149 157 163 161 162 163 163 163 162 162 159 159 156 155 153 158
218 211 269 255 14 185 264 316 316 337 261 230 241 255 203 183 156 155 149 140 149 139 141 154 161 159 145 148 161 163 162 161 163 164 162 162 161 161 164 162 157 153 149 142
151 276 260 294 176 219 201 193 325 340 312 296 224 217 183 178 161 166 163 148 148 139 136 156 166 168 145 156 162 160 160 160 160 158 162 165 166 166 166 167 158 147 146 144
166 251 249 244 185 217 213 193 230 226 305 349 272 240 230 166 164 161 157 152 146 140 142 140 160 163 165 161 162 158 149 151 158 158 160 166 168 172 169 164 157 154 152 150
235 257 276 255 252 204 200 235 239 206 225 298 290 248 206 197 170 166 160 151 153 149 145 137 152 151 156 158 160 147 145 148 150 149 146 137 135 146 153 156 167 164 163 168
222 223 201 233 240 232 231 222 263 168 340 345 292 277 231 192 181 167 158 151 139 130 128 131 136 140 154 160 160 151 137 138 139 135 132 128 123 105 93 105 115 129 137 158
312 312 283 294 4 5 113 69 32 337 356 9 326 287 206 178 143 134 124 123 117 104 102 112 118 123 145 154 156 148 132 131 130 131 129 124 118 114 104 94 93 91 99 112
346 350 19 17 347 6 15 33 51 34 16 9 335 341 55 73 79 79 82 93 96 102 100 100 92 84 116 141 140 128 122 126 123 122 122 121 118 116 121 126 132 131 128 145
350 15 357 357 33 18 4 26 51 40 24 29 24 40 72 85 82 81 82 89 89 82 74 73 78 70 91 106 106 103 103 100 106 107 107 110 117 126 126 128 144 167 173 181
333 22 22 38 31 25 29 30 55 46 49 52 54 53 61 74 80 77 72 75 81 79 80 82 77 80 90 92 95 94 96 105 113 121 122 120 124 130 135 144 154 162 187 200
8 15 11 25 31 28 33 40 59 63 64 65 73 79 76 77 76 75 77 79 79 75 75 82 84 93 96 100 105 105 106 105 106 102 100 103 107 113 124 130 131 122 138 160
45 56 55 48 47 48 45 46 54 66 72 78 76 80 81 76 83 82 82 83 79 73 73 83 91 93 93 97 100 100 100 98 94 96 95 88 85 87 90 87 110 134 121 50
51 56 61 62 69 70 59 61 63 67 70 81 85 79 80 85 82 82 83 78 73 73 65 84 87 85 84 85 90 90 91 90 83 80 75 69 69 91 83 64 38 332 323 4
59 62 66 64 61 66 66 63 69 68 67 74 82 81 78 77 83 83 79 75 76 81 85 84 83 78 76 75 76 77 77 75 72 71 58 53 54 45 44 53 55 48 36 36
55 60 66 67 66 65 66 70 74 71 70 71 75 75 78 77 76 82 82 79 73 86 84 82 77 76 74 75 71 71 73 69 60 51 53 49 39 32 33 24 15 5 359 350
62 63 64 67 67 65 61 66 70 74 75 74 75 78 80 79 81 77 77 84 83 79 75 75 71 77 72 72 71 66 62 61 60 57 53 51 48 39 29 26 23 5 348 338
69 68 69 68 69 70 65 62 65 71 71 71 72 73 71 68 74 85 81 79 79 75 74 71 70 72 73 71 67 62 57 54 52 44 39 37 43 38 25 11 2 357 344 341
58 57 56 61 70 68 65 61 65 66 69 67 68 73 76 78 75 86 88 86 84 76 73 72 71 67 61 55 50 52 56 57 55 53 54 40 22 6 359 359 359 350 348 340
59 57 53 54 55 53 67 70 71 69 71 70 67 68 74 81 86 92 86 90 81 81 81 75 68 61 57 57 54 49 45 43 38 27 20 14 10 5 357 350 345 339 331 329
62 63 61 58 58 59 61 69 71 72 77 72 63 72 83 86 92 95 92 88 84 80 78 67 58 52 47 41 39 40 35 29 25 22 15 5 357 351 349 345 340 336 331 324
60 61 63 61 57 68 73 72 72 68 78 85 79 79 85 89 90 89 83 77 74 72 66 55 42 33 31 32 30 24 24 27 19 5 354 349 349 349 343 338 334 331 327 321
Height
699 698 702 702 703 699 706 711 724 718 716 705 704 699 695 691 689 689 690 692 693 693 697 697 699 701 705 711 715 719 724 731 735 737 742 746 749 753 760 764 767 771 774 778
707 697 698 705 696 692 693 697 703 703 707 687 682 683 687 687 684 684 683 683 685 684 689 694 694 694 698 702 708 715 720 724 728 732 737 743 747 750 756 759 764 768 771 773
709 701 698 715 694 696 692 691 695 706 698 681 682 680 680 682 679 677 677 677 678 679 681 686 687 687 692 697 701 708 715 719 724 728 732 737 742 748 753 759 762 766 769 773
729 715 720 669 671 679 685 680 681 681 681 678 675 672 668 667 670 669 670 670 673 675 679 683 687 689 691 695 700 706 713 718 722 725 731 735 740 746 751 756 759 763 768 772
736 716 694 680 673 677 684 685 670 673 672 674 669 668 665 663 660 661 662 662 666 670 676 680 686 690 694 699 703 707 711 717 723 728 732 736 739 743 748 753 758 763 767 771
736 729 707 677 672 660 664 696 668 667 665 672 672 690 679 658 657 659 659 660 666 671 675 680 686 690 694 699 704 709 714 717 722 727 732 734 738 743 749 755 759 764 769 773
734 734 706 677 668 659 690 685 662 660 661 667 678 671 655 653 656 658 659 661 666 669 672 678 684 689 694 698 703 707 711 716 721 725 729 734 740 746 751 756 761 764 768 773
727 718 713 669 664 674 679 672 665 661 658 663 661 658 654 654 656 659 662 666 667 671 676 680 684 688 694 699 702 706 711 716 722 726 731 735 740 746 751 755 759 765 769 774
719 712 683 670 669 673 668 670 667 667 663 654 657 654 653 654 655 659 661 665 668 672 678 683 686 688 693 699 702 706 711 716 721 727 731 736 740 746 752 756 760 766 770 774
705 683 679 667 666 664 662 663 662 662 663 656 657 655 657 653 657 660 663 665 666 673 680 684 686 690 694 701 706 709 714 720 725 730 735 739 744 747 751 756 761 765 770 774
686 673 670 663 655 655 655 658 656 657 659 658 655 653 654 657 658 659 662 665 667 671 678 683 687 692 698 702 707 713 718 724 730 735 740 745 750 755 758 761 763 765 771 775
680 660 657 653 649 648 649 646 650 653 652 651 653 651 651 652 654 657 660 665 670 674 679 685 689 694 699 704 707 712 719 726 732 738 744 750 753 760 765 768 770 773 775 778
682 669 658 653 652 649 647 649 651 655 651 649 650 652 650 652 655 658 662 668 674 681 686 691 695 700 703 706 711 715 721 728 734 740 747 752 758 762 767 773 775 778 779 780
683 669 666 668 668 664 662 656 652 656 658 658 654 648 648 656 662 668 672 678 683 683 687 694 700 708 712 711 712 718 724 731 737 744 750 756 761 765 770 773 777 779 781 783
693 686 684 676 672 672 671 665 666 671 672 668 666 661 660 663 670 681 688 689 691 696 702 708 708 717 719 719 720 726 731 738 743 748 754 758 763 766 769 773 776 778 779 781
696 692 688 687 689 688 685 683 682 684 682 681 681 682 685 685 686 692 698 702 702 710 714 715 721 726 729 732 732 736 741 747 750 754 758 761 764 767 771 773 775 777 778 779
694 693 694 695 699 700 699 697 694 693 694 693 694 695 697 701 703 706 711 714 717 723 727 727 730 733 735 741 744 747 749 752 757 762 764 765 767 769 773 775 776 777 778 780
707 706 706 706 707 709 709 708 704 701 702 704 705 704 706 713 717 722 726 727 726 729 735 738 740 742 746 749 752 755 758 760 762 765 769 771 771 772 774 776 777 778 779 780
717 715 713 717 715 713 717 717 715 713 714 714 711 717 722 724 730 733 733 733 738 741 748 749 749 750 753 758 758 761 764 766 767 770 772 774 774 774 775 776 777 777 778 778
723 722 724 726 721 720 725 725 725 724 727 727 725 726 732 737 740 741 744 745 749 753 755 756 757 759 762 764 765 767 769 770 771 774 775 776 776 777 777 777 778 778 779 778
736 736 734 732 733 733 735 735 732 734 738 739 738 741 744 747 749 752 754 755 762 762 761 762 764 766 768 769 771 771 773 774 775 776 776 777 778 778 779 779 778 778 778 778
746 744 745 743 743 745 745 744 743 745 747 748 751 752 754 757 759 761 764 766 769 768 767 768 770 772 773 774 775 776 776 777 778 778 778 779 780 780 780 779 779 779 778 776
752 752 754 754 754 756 756 756 755 756 756 759 760 762 763 765 767 768 771 775 773 773 774 776 777 778 779 779 779 779 779 779 779 780 780 781 781 781 781 780 778 777 775 774
760 761 762 764 764 764 765 767 766 766 767 769 770 772 772 773 775 777 778 779 780 780 780 782 783 783 783 782 781 781 781 782 782 782 782 782 781 781 780 778 776 775 774 773
771 772 773 773 773 775 776 777 776 777 777 778 780 781 780 781 780 784 784 785 786 786 786 787 786 786 786 785 784 783 783 784 783 783 782 782 781 780 778 777 776 775 773 771
781 782 784 784 785 785 785 784 784 786 786 786 786 786 787 788 789 789 789 790 790 790 790 790 789 789 788 787 786 785 784 784 783 783 782 781 780 778 777 776 774 772 770 767
790 791 792 792 792 791 790 790 790 791 791 792 793 794 794 793 794 793 793 793 793 793 793 793 792 791 790 789 788 787 786 785 784 783 781 780 778 778 776 774 772 769 766 764